CW6421 Weather Reports


Display with metric or nautical units.
time (UTC)temp
F
wind
direction
speed
MPH
gust
MPH
rain 1hr
in
rain 24hr
in
rain mn
in
humidity
%
barometer
mb
20260506140527 55 21 10.0 11.0 0.00 0.66 0.00 91 1006.9
20260506135527 55 17 10.0 12.0 0.00 0.66 0.00 91 1006.9
20260506134530 54 10 7.0 11.0 0.00 0.66 0.00 91 1006.9
20260506133528 54 9 6.0 11.0 0.00 0.66 0.00 91 1006.9
20260506132528 55 3 7.0 12.0 0.00 0.66 0.00 92 1006.9
20260506131530 55 1 8.0 11.0 0.00 0.66 0.00 92 1006.9
20260506130528 54 17 8.0 16.0 0.00 0.66 0.00 92 1006.9
20260506125527 54 11 8.0 14.0 0.00 0.66 0.00 92 1006.9
20260506124531 54 11 7.0 16.0 0.00 0.66 0.00 92 1006.9
20260506121530 54 33 5.0 14.0 0.00 0.66 0.00 92 1006.9
20260506120528 55 35 4.0 15.0 0.00 0.66 0.00 92 1006.3
20260506115526 55 26 5.0 16.0 0.01 0.66 0.00 92 1006.3
20260506112527 55 11 8.0 14.0 0.02 0.65 0.00 92 1006.3
20260506111530 55 10 9.0 15.0 0.03 0.65 0.00 92 1006.3
20260506110528 54 350 8.0 17.0 0.03 0.65 0.00 93 1005.7
20260506105528 55 9 10.0 17.0 0.04 0.65 0.00 93 1005.7
20260506103527 54 1 10.0 17.0 0.04 0.64 0.00 93 1005.7
20260506102527 54 1 12.0 14.0 0.04 0.63 0.00 93 1005.1
20260506101529 54 351 10.0 13.0 0.04 0.63 0.00 93 1005.1
20260506100527 54 354 9.0 12.0 0.04 0.62 0.00 93 1005.1
20260506095527 54 355 11.0 13.0 0.05 0.61 0.00 93 1005.1
20260506094530 53 6 11.0 13.0 0.06 0.61 0.00 93 1005.1
20260506093528 53 4 12.0 14.0 0.06 0.60 0.00 93 1005.1
20260506092527 53 6 13.0 14.0 0.07 0.59 0.00 93 1005.1
20260506091530 53 18 8.0 12.0 0.08 0.59 0.00 93 1005.1
20260506090528 53 2 8.0 15.0 0.09 0.58 0.00 93 1004.7
20260506085527 53 1 6.0 15.0 0.08 0.57 0.00 93 1004.7
20260506083527 53 31 6.0 17.0 0.07 0.54 0.00 93 1004.7
20260506081530 53 29 7.0 16.0 0.06 0.51 0.00 93 1004.7
20260506073528 53 34 8.0 15.0 0.05 0.47 0.00 93 1004.5
20260506071531 53 57 10.0 14.0 0.05 0.45 0.00 93 1004.5
20260506050528 53 48 12.0 14.0 0.07 0.37 0.00 92 1005.1
20260506043527 53 31 10.0 14.0 0.08 0.33 0.00 92 1005.1
20260506042529 53 41 11.0 14.0 0.08 0.32 0.00 91 1005.1
20260506041529 53 37 9.0 14.0 0.08 0.31 0.00 91 1005.1
20260506040526 53 40 10.0 15.0 0.08 0.30 0.00 91 1005.5
20260506034528 53 20 11.0 16.0 0.10 0.27 0.00 91 1005.5
20260506033526 53 21 8.0 16.0 0.10 0.25 0.00 91 1005.5
20260506032528 53 39 9.0 17.0 0.11 0.24 0.00 91 1005.5
20260506031528 53 23 7.0 17.0 0.12 0.23 0.00 91 1005.5
20260506030526 53 27 7.0 17.0 0.12 0.21 0.00 90 1005.9
20260506025527 53 19 7.0 17.0 0.11 0.19 0.00 90 1005.9
20260506024529 53 36 9.0 17.0 0.10 0.17 0.00 90 1005.9
20260506023526 53 43 8.0 19.0 0.09 0.15 0.00 90 1005.9
20260506022526 53 32 8.0 17.0 0.08 0.13 0.00 89 1005.9
20260506021528 53 53 11.0 17.0 0.07 0.11 0.00 89 1005.9
20260506020526 54 49 11.0 14.0 0.06 0.09 0.00 89 1006.6
20260506015529 54 51 11.0 13.0 0.05 0.08 0.00 89 1006.6
20260506014529 54 55 11.0 13.0 0.04 0.07 0.00 89 1006.6
20260506013527 54 64 11.0 12.0 0.03 0.06 0.00 89 1006.6
20260506012528 54 54 10.0 14.0 0.03 0.05 0.00 89 1006.6
20260506011529 54 54 8.0 13.0 0.02 0.04 0.00 88 1006.6
20260506010527 54 51 8.0 12.0 0.01 0.04 0.00 88 1007.1
20260506005525 54 65 10.0 13.0 0.01 0.03 0.00 88 1007.1
20260506004529 54 47 6.0 12.0 0.01 0.03 0.00 87 1007.1
20260506003527 55 43 6.0 14.0 0.01 0.03 0.00 87 1007.1
20260506002526 55 49 7.0 14.0 0.01 0.03 0.00 87 1007.1
20260506001529 55 38 8.0 14.0 0.01 0.03 0.00 87 1007.1
20260506000527 55 31 9.0 16.0 0.00 0.02 0.00 86 1007.5
20260505234528 55 59 10.0 16.0 0.00 0.02 0.00 86 1007.5
20260505233527 55 40 10.0 14.0 0.00 0.02 0.00 85 1007.5
20260505232527 55 41 10.0 15.0 0.00 0.02 0.00 85 1007.5
20260505231527 56 34 8.0 15.0 0.00 0.02 0.00 84 1007.5
20260505230527 56 25 9.0 17.0 0.00 0.02 0.00 83 1007.7
20260505225527 56 29 8.0 18.0 0.00 0.02 0.00 83 1007.7
20260505224530 56 37 12.0 14.0 0.00 0.02 0.00 83 1007.7
20260505223526 56 41 14.0 15.0 0.00 0.02 0.00 82 1007.7
20260505222527 56 48 11.0 17.0 0.00 0.02 0.00 82 1007.7
20260505221529 56 30 12.0 17.0 0.00 0.02 0.00 82 1007.7
20260505220527 56 39 9.0 14.0 0.00 0.02 0.00 81 1007.9
20260505215528 57 43 12.0 16.0 0.00 0.02 0.00 81 1007.9
20260505214530 57 20 12.0 17.0 0.00 0.02 0.00 81 1007.9
20260505213527 57 24 11.0 14.0 0.00 0.02 0.00 81 1007.9
20260505212526 57 14 11.0 15.0 0.00 0.02 0.00 81 1007.9
20260505210528 58 18 12.0 15.0 0.00 0.02 0.00 80 1007.6
20260505205528 58 28 12.0 14.0 0.00 0.02 0.00 80 1007.6
20260505204529 58 11 9.0 13.0 0.00 0.02 0.00 80 1007.6
20260505203526 58 21 10.0 13.0 0.00 0.02 0.00 80 1007.6
20260505202528 59 12 9.0 13.0 0.00 0.02 0.00 79 1007.6
20260505201529 59 34 7.0 16.0 0.00 0.02 0.00 79 1007.6
20260505200528 59 40 8.0 13.0 0.00 0.02 0.00 78 1007.5
20260505195527 60 39 8.0 14.0 0.00 0.02 0.00 78 1007.5
20260505194531 60 40 8.0 14.0 0.00 0.02 0.00 78 1007.5
20260505193526 60 44 9.0 13.0 0.00 0.02 0.00 77 1007.5
20260505192526 60 35 8.0 13.0 0.00 0.02 0.00 77 1007.5
20260505190528 61 30 9.0 11.0 0.00 0.02 0.00 75 1007.5
20260505185527 62 34 10.0 13.0 0.00 0.02 0.00 75 1007.5
20260505183526 63 40 6.0 12.0 0.00 0.02 0.00 74 1007.5
20260505182527 63 40 9.0 13.0 0.01 0.02 0.00 73 1007.5
20260505181531 63 71 8.0 13.0 0.01 0.02 0.00 73 1007.5
20260505180527 64 74 9.0 13.0 0.01 0.02 0.00 72 1007.7
20260505175528 64 76 8.0 12.0 0.01 0.02 0.00 71 1007.7
20260505174529 65 70 6.0 12.0 0.01 0.02 0.00 71 1007.7
20260505173526 65 66 8.0 13.0 0.00 0.02 0.00 70 1007.7
20260505172529 65 69 6.0 14.0 0.00 0.01 0.00 70 1007.7
20260505171529 66 44 6.0 13.0 0.00 0.01 0.00 70 1007.7
20260505170527 66 54 7.0 10.0 0.00 0.01 0.00 69 1007.9
20260505164530 67 39 8.0 8.0 0.00 0.01 0.00 68 1007.9
20260505162526 67 33 10.0 12.0 0.00 0.01 0.00 68 1007.9
20260505161529 67 49 6.0 9.0 0.00 0.01 0.00 68 1007.9
20260505160527 68 44 4.0 10.0 0.00 0.01 0.00 67 1008.1
20260505152528 69 60 4.0 10.0 0.00 0.01 0.00 66 1008.1
20260505150527 69 61 6.0 11.0 0.00 0.01 0.00 66 1008.3